Welcome to the New NWS' Forecast!
Most changes are behind the scenes, but click here for differences you might notice.
Latest weather observations around

St Clair County Airport (KPLR)

Using English Units (Switch to International System of Units)
Date/ Time (CDT) Wind (mph) Vis. (mi) Weather Sky Cond. Temp (°F) Rel. Humidity Wind Chill (°F) Heat Index (°F) Pressure Precip. (in)
Air Dwpt 6 hour Altimeter (inHg) Sea level (inHg) 1 hr 3 hr 6 hr
Max Min
Oct 22 07:15 Calm 10 Clear   34 34     100%     30.3        
Oct 22 06:55 Calm 10 Clear   32 32     100%     30.29        
Oct 22 06:35 Calm 10 Clear   32 32     100%     30.29        
Oct 22 06:15 Calm 10 Clear   34 34     100%     30.29        
Oct 22 05:55 Calm 10 Clear   34 34     100%     30.29        
Oct 22 05:35 Calm 10 Clear   34 34     100%     30.28        
Oct 22 05:15 Calm 10 Clear   34 34     100%     30.28        
Oct 22 04:55 Calm 10 Clear   34 34     100%     30.27        
Oct 22 04:35 Calm 10 Clear   34 34     100%     30.26        
Oct 22 04:15 Calm 10 Clear   34 34     100%     30.26        
Oct 22 03:55 Calm 10 Clear   34 34     100%     30.26        
Oct 22 03:35 Calm 10 Clear   34 34     100%     30.25        
Oct 22 03:15 Calm 10 Clear   34 34     100%     30.25        
Oct 22 02:55 Calm 10 Clear   34 34     100%     30.25        
Oct 22 02:35 Calm 10 Clear   34 34     100%     30.26        
Oct 22 02:15 Calm 10 Clear   36 36     100%     30.26        
Oct 22 01:55 Calm 10 Clear   36 36     100%     30.26        
Oct 22 01:35 Calm 10 Clear   36 36     100%     30.26        
Oct 22 01:15 Calm 10 Clear   36 36     100%     30.26        
Oct 22 00:55 Calm 10 Clear   36 36     100%     30.26        
Oct 22 00:35 Calm 10 Clear   36 36     100%     30.27        
Oct 22 00:15 Calm 10 Clear   36 36     100%     30.27        
Oct 21 23:55 Calm 10 Clear   36 36     100%     30.26        
Oct 21 23:35 Calm 10 Clear   36 36     100%     30.27        
Oct 21 23:15 Calm 10 Clear   36 36     100%     30.27        
Oct 21 22:55 Calm 10 Clear   37 37     100%     30.26        
Oct 21 22:35 Calm 10 Clear   37 37     100%     30.26        
Oct 21 22:15 Calm 10 Clear   37 37     100%     30.26        
Oct 21 21:55 Calm 10 Clear   37 37     100%     30.27        
Oct 21 21:35 Calm 10 Clear   39 39     100%     30.27        
Oct 21 21:15 Calm 10 Clear   39 39     100%     30.27        
Oct 21 20:55 Calm 10 Clear   39 39     100%     30.27        
Oct 21 20:35 Calm 10 Clear   41 39     93%     30.26        
Oct 21 20:15 Calm 10 Clear   41 41     100%     30.26        
Oct 21 19:55 Calm 10 Clear   43 41     93%     30.25        
Oct 21 19:35 Calm 10 Clear   43 41     93%     30.25        
Oct 21 19:15 Calm 10 Clear   45 41     87%     30.25        
Notice The following observation data may not be complete
Oct 21 18:55 Calm 10 Clear     41      %     30.24        
Oct 21 18:35 Calm 10 Clear   46 41     81%     30.23        
Oct 21 18:15 Calm 10 Clear   52 39     62%     30.23        
Oct 21 17:55 NNE 5 9 Clear   55 36     47%     30.23        
Oct 21 17:35 NNE 5 9 Clear   59 34     39%     30.24        
Oct 21 17:15 NE 7 10 Clear   61 30     31%     30.24        
Oct 21 16:55 NNE 7 10 Clear   61 30     31%     30.23        
Oct 21 16:35 NNE 8 10 Clear   61 32     34%     30.23        
Oct 21 16:15 NNE 9 10 Clear   61 30     31%     30.23        
Oct 21 15:55 NNE 9 10 Clear   61 28     29%     30.23        
Oct 21 15:35 NNE 9 10 Clear   61 28     29%     30.24        
Oct 21 15:15 NE 8 10 Clear   61 28     29%     30.24        
Oct 21 14:55 NNE 12 10 Clear   61 28     29%     30.24        
Oct 21 14:35 NE 9 10 Clear   61 28     29%     30.25        
Oct 21 14:15 NE 12 10 Clear   61 28     29%     30.26        
Oct 21 13:55 NNE 10 10 Clear   59 28     31%     30.26        
Oct 21 13:35 N 14 10 Clear   59 30     33%     30.27        
Oct 21 13:15 ENE 6 10 Clear   57 30     36%     30.29        
Oct 21 12:55 NNE 10 10 Clear   57 30     36%     30.29        
Oct 21 12:35 NNE 13 10 Clear   57 30     36%     30.31        
Oct 21 12:15 NE 12 10 Clear   55 30     38%     30.31        
Oct 21 11:55 NNE 13 10 Clear   54 30     41%     30.32        
Oct 21 11:35 NNE 9 10 Clear   54 32     44%     30.32        
Oct 21 11:15 ENE 12 10 Clear   52 30     43%     30.33        
Oct 21 10:55 NE 10 10 Clear   52 32     47%     30.33        
Oct 21 10:35 N 15 10 Clear   50 30     46%     30.33        
Oct 21 10:15 NNE 10 10 Clear   50 30     46%     30.33        
Oct 21 09:55 NNE 8 10 Clear   48 32     53% 45   30.33        
Oct 21 09:35 NNE 16 10 Clear   48 30     50% 42   30.32        
Oct 21 09:15 NE 14 10 Clear   46 30     53% 40   30.31        
Oct 21 08:55 NNE 10 10 Clear   46 32     57% 41   30.31        
Oct 21 08:35 NNE 10 10 Clear   46 32     57% 41   30.31        
Oct 21 08:15 N 12 10 Clear   45 32     61% 39   30.3        
Oct 21 07:55 NNE 12 10 Clear   45 32     61% 39   30.29        
Oct 21 07:35 N 10 10 Clear   43 32     65% 37   30.28        
Oct 21 07:15 N 12 10 Clear   41 32     70% 34   30.27        
Oct 21 06:55 N 8 10 Clear   41 32     70% 36   30.26        
Oct 21 06:35 N 9 10 Clear   43 32     65% 37   30.26        
Oct 21 06:15 NNE 12 10 Clear   45 32     61% 39   30.25        
Oct 21 05:55 N 9 10 Clear   45 32     61% 40   30.24        
Oct 21 05:35 N 8 10 Clear   45 34     66% 40   30.23        
Oct 21 05:15 N 9 10 Clear   45 37     76% 40   30.22        
Oct 21 04:55 NNE 6   Clear   45 39     81% 41   30.22        
Oct 21 04:35 N 6 10 Clear   45 39     81% 41   30.21        
Oct 21 04:15 NNE 5 10 Clear   46 41     81% 44   30.2        
Oct 21 03:55 N 7 10 Clear   48 43     81% 45   30.19        
Oct 21 03:35 N 3 10 Clear   50 45     82%     30.19        
Oct 21 03:15 N 7 10 Clear   50 45     82%     30.18        
Oct 21 02:55 N 7 10 Clear   50 45     82%     30.18        
Oct 21 02:35 N 7 10 Clear   50 46     87%     30.17        
Oct 21 02:15 NNE 7 10 Clear   52 48     87%     30.16        
Oct 21 01:55 N 9 10 Clear   54 48     82%     30.16        
Oct 21 01:35 NNW 8 10 Clear   52 50     94%     30.15        
Oct 21 01:15 NNW 5 10 Clear   48 48     100% 46   30.15        
Oct 21 00:55 Calm 7 Clear   48 48     100%     30.15        
Oct 21 00:35 Calm 6 Clear   48 48     100%     30.15        
Oct 21 00:15 Calm 7 Clear   48 48     100%     30.15        
Oct 20 23:55 Calm 6 Clear   48 48     100%     30.16        
Oct 20 23:35 Calm 5 Clear   48 48     100%     30.16        
Oct 20 23:15 Calm 5 Clear   50 50     100%     30.16        
Oct 20 22:55 Calm 1.25 Clear   50 50     100%     30.16        
Oct 20 22:35 Calm 7 Clear   50 50     100%     30.17        
Oct 20 22:15 Calm 5 Clear   50 50     100%     30.16        
Oct 20 21:55 Calm 1.75 Clear   50 50     100%     30.16        
Oct 20 21:35 Calm 8 Clear   52 52     100%     30.15        
Oct 20 21:15 Calm 7 Clear   52 52     100%     30.14        
Oct 20 20:55 Calm 10 Clear   54 54     100%     30.14        
Oct 20 20:35 Calm 10 Clear   52 52     100%     30.13        
Oct 20 20:15 Calm 9 Clear   54 54     100%     30.12        
Oct 20 19:55 Calm 10 Clear   54 54     100%     30.12        
Oct 20 19:35 Calm 10 Clear   54 54     100%     30.11        
Oct 20 19:15 Calm 10 Clear   55 55     100%     30.09        
Oct 20 18:55 Calm 10 Clear   55 55     100%     30.09        
Oct 20 18:35 Calm 10 Clear   57 57     100%     30.07        
Oct 20 18:15 Calm 10 Clear   61 57     88%     30.07        
Oct 20 17:55 Calm 10 Clear   63 57     83%     30.06        
Oct 20 17:35 Calm 10 Clear   63 57     83%     30.06        
Oct 20 17:15 NNW 5 10 Clear   64 57     77%     30.05        
Oct 20 16:55 NW 6 10 Clear   64 59     83%     30.05        
Oct 20 16:35 WNW 3 10 Clear   64 59     83%     30.04        
Oct 20 16:15 NW 9 10 Clear   64 59     83%     30.04        
Oct 20 15:55 NW 8 10 Clear   66 61     83%     30.04        
Oct 20 15:35 NNW 10 10 Clear   66 61     83%     30.04        
Oct 20 15:15 WNW 9 10 Clear   66 61     83%     30.04        
Oct 20 14:55 7 10 Clear   66 61     83%     30.04        
Oct 20 14:35 7 10 Clear   66 63     88%     30.04        
Oct 20 14:15 NNW 6 10 Clear   64 64     100%     30.04        
Oct 20 13:55 WNW 6 10 Clear   64 63     94%     30.04        
Oct 20 13:35 Calm 10 Clear   64 63     94%     30.05        
Oct 20 13:15 Calm 4 Clear   63 63     100%     30.06        
Oct 20 12:55 W 5 4 Clear   64 63     94%     30.07        
Oct 20 12:35 Calm 9 Clear   64 61     88%     30.08        
Oct 20 12:15 Calm 10 Clear   64 61     88%     30.08        
Oct 20 11:55 Calm 9 Clear   64 61     88%     30.09        
Oct 20 11:35 Calm 10 Clear   64 61     88%     30.1        
Oct 20 11:15 Calm 10 Clear   64 61     88%     30.09        
Oct 20 10:55 N 5 10 Clear   64 63     94%     30.1        
Oct 20 10:35 NNW 5 10 Clear   64 61     88%     30.11        
Oct 20 10:15 Calm 10 Clear   64 63     94%     30.09        
Oct 20 09:55 Calm 10 Clear   64 63     94%     30.1        
Oct 20 09:35 NNW 5 9 Clear   64 61     88%     30.1        
Oct 20 09:15 NNW 6 10 Clear   64 63     94%     30.1        
Oct 20 08:55 NNE 3 10 Clear   64 61     88%     30.08        
Oct 20 08:35 NNW 6 10 Clear   64 63     94%     30.09        
Oct 20 08:15 N 8 10 Clear   66 66     100%     30.07        
Oct 20 07:55 Calm 10 Clear   66 64     94%     30.06        
Oct 20 07:35 3 10 Clear   66 64     94%     30.05        
Oct 20 07:15 N 6 10 Clear   68 68     100%     30.04        
Oct 20 06:55 Calm 8 Clear   68 68     100%     30.04        
Oct 20 06:35 Calm 4 Clear   68 68     100%     30.04        
Oct 20 06:15 NW 5 8 Clear   68 68     100%     30.03        
Oct 20 05:55 Calm 9 Clear   70 70     100%     30.03        
Oct 20 05:35 SSW 6 9 Clear   68 68     100%     30.03        
Oct 20 05:15 SW 5 9 Clear   68 68     100%     30.03        
Oct 20 04:55 SW 5 9 Clear   68 68     100%     30.03        
Oct 20 04:35 SSW 6 10 Clear   68 68     100%     30.03        
Oct 20 04:15 SSW 5 10 Clear   68 68     100%     30.03        
Oct 20 03:55 Calm 9 Clear   66 66     100%     30.03        
Oct 20 03:35 Calm 10 Clear   66 66     100%     30.04        
Oct 20 03:15 Calm 9 Clear   66 66     100%     30.05        
Oct 20 02:55 Calm 9 Clear   66 66     100%     30.05        
Oct 20 02:35 Calm 10 Clear   68 68     100%     30.06        
Oct 20 02:15 Calm 10 Clear   68 68     100%     30.07        
Oct 20 01:55 Calm 10 Clear   68 68     100%     30.07        
Oct 20 01:35 Calm 10 Clear   68 68     100%     30.08        
Oct 20 01:15 S 3 10 Clear   68 68     100%     30.09        
Oct 20 00:55 SSW 3 10 Clear   68 68     100%     30.09        
Oct 20 00:35 SSW 5 10 Clear   70 70     100%     30.09        
Oct 20 00:15 Calm 10 Clear   68 68     100%     30.11        
Oct 19 23:55 SSW 3 10 Clear   68 68     100%     30.11        
Oct 19 23:35 Calm 10 Clear   68 68     100%     30.12        
Oct 19 23:15 Calm 10 Clear   68 68     100%     30.12        
Oct 19 22:55 Calm 10 Clear   66 66     100%     30.12        
Oct 19 22:35 Calm 10 Clear   66 66     100%     30.13        
Oct 19 22:15 Calm 10 Clear   68 68     100%     30.13        
Oct 19 21:55 Calm 10 Clear   68 68     100%     30.13        
Oct 19 21:35 Calm 10 Clear   68 68     100%     30.13        
Oct 19 21:15 Calm 10 Clear   68 68     100%     30.13        
Oct 19 20:55 SSW 3 10 Clear   66 66     100%     30.13        
Oct 19 20:35 Calm 10 Clear   66 66     100%     30.13        
Oct 19 20:15 Calm 10 Clear   66 66     100%     30.13        
Oct 19 19:55 Calm 10 Clear   68 68     100%     30.14        
Oct 19 19:35 Calm 10 Clear   68 68     100%     30.14        
Oct 19 19:15 Calm 10 Clear   68 68     100%     30.14        
Oct 19 18:55 Calm 10 Clear   68 68     100%     30.13        
Oct 19 18:35 Calm 10 Clear   70 68     94%     30.13        
Oct 19 18:15 Calm 10 Clear   70 68     94%     30.13        
Oct 19 17:55 Calm 10 Clear   72 68     88%   73 30.13        
Oct 19 17:35 Calm 10 Clear   73 66     78%   74 30.13        
Oct 19 17:15 S 5 10 Clear   75 66     74%   76 30.13        
Oct 19 16:55 S 5 10 Clear   77 64     65%   77 30.14        
Oct 19 16:35 SSW 6 10 Clear   77 64     65%   77 30.14        
Oct 19 16:15 SSW 6 10 Clear   79 64     61%   79 30.14        
Oct 19 15:55 SSW 8 10 Clear   79 64     61%   79 30.14        
Oct 19 15:35 SSW 7 10 Clear   79 64     61%   79 30.14        
Oct 19 15:15 S 6 10 Clear   79 64     61%   79 30.15        
Oct 19 14:55 SSW 8 10 Clear   77 64     65%   77 30.16        
Oct 19 14:35 SW 6 10 Clear   77 64     65%   77 30.17        
Oct 19 14:15 SSW 8 10 Clear   77 64     65%   77 30.18        
Oct 19 13:55 W 7 10 Clear   75 64     69%   76 30.19        
Oct 19 13:35 SSW 7 10 Clear   75 64     69%   76 30.2        
Oct 19 13:15 3 10 Clear   75 64     69%   76 30.21        
Oct 19 12:55 S 7 10 Clear   75 64     69%   76 30.22        
Oct 19 12:35 3 10 Clear   73 64     73%   74 30.24        
Oct 19 12:15 Calm 10 Clear   72 63     73%   72 30.25        
Oct 19 11:55 3 10 Clear   72 63     73%   72 30.26        
Oct 19 11:35 Calm 10 Clear   70 61     73%     30.27        
Oct 19 11:15 Calm 10 Clear   68 59     73%     30.28        
Oct 19 10:55 Calm 10 Clear   66 59     78%     30.29        
Oct 19 10:35 Calm 10 Clear   66 57     73%     30.3        
Oct 19 10:15 Calm 10 Clear   64 57     77%     30.3        
Oct 19 09:55 ENE 5 10 Clear   63 57     83%     30.3        
Oct 19 09:35 Calm 10 Clear   61 55     82%     30.31        
Oct 19 09:15 NNE 5 10 Clear   59 57     94%     30.31        
Oct 19 08:55 NNE 5 10 Clear   59 57     94%     30.31        
Oct 19 08:35 NNE 5 10 Clear   57 57     100%     30.31        
Oct 19 08:15 N 3 10 Clear   55 55     100%     30.3        
Oct 19 07:55 N 3 10 Clear   55 55     100%     30.3        
Oct 19 07:35 NNE 3 10 Clear   52 52     100%     30.29        
Oct 19 07:15 Calm 10 Clear   48 48     100%     30.29        
Oct 19 06:55 Calm 10 Clear   48 48     100%     30.29        
Oct 19 06:35 Calm 10 Clear   48 48     100%     30.29        
Oct 19 06:15 Calm 10 Clear   48 48     100%     30.29        
Oct 19 05:55 Calm 10 Clear   48 48     100%     30.29        
Oct 19 05:35 Calm 10 Clear   48 48     100%     30.29        
Oct 19 05:15 Calm 10 Clear   48 48     100%     30.29        
Oct 19 04:55 Calm 10 Clear   48 48     100%     30.29        
Oct 19 04:35 Calm 10 Clear   48 48     100%     30.29        
Oct 19 04:15 Calm 10 Clear   48 48     100%     30.29        
Oct 19 03:55 Calm 10 Clear   50 50     100%     30.29        
Oct 19 03:35 Calm 10 Clear   48 48     100%     30.29        
Oct 19 03:15 Calm 10 Clear   50 50     100%     30.29        
Oct 19 02:55 Calm 10 Clear   50 50     100%     30.3        
Oct 19 02:35 Calm 10 Clear   50 50     100%     30.3        
Oct 19 02:15 Calm 10 Clear   50 50     100%     30.3        
Oct 19 01:55 Calm 10 Clear   50 50     100%     30.31        
Oct 19 01:35 Calm 10 Clear   50 50     100%     30.31        
Oct 19 01:15 Calm 10 Clear   50 50     100%     30.31        
Oct 19 00:55 NNE 3 10 Clear   52 52     100%     30.32        
Oct 19 00:35 Calm 10 Clear   52 52     100%     30.32        
Oct 19 00:15 NNE 3 10 Clear   52 52     100%     30.32        
Oct 18 23:55 Calm 10 Clear   52 52     100%     30.32        
Oct 18 23:35 Calm 10 Clear   52 52     100%     30.32        
Oct 18 23:15 Calm 10 Clear   52 52     100%     30.32        
Oct 18 22:55 Calm 10 Clear   52 52     100%     30.33        
Oct 18 22:35 Calm   Clear   52 52     100%     30.33        
Oct 18 22:15 Calm 10 Clear   54 54     100%     30.33        
Oct 18 21:55 Calm 10 Clear   54 54     100%     30.33        
Oct 18 21:35 Calm 10 Clear   54 54     100%     30.33        
Oct 18 21:15 Calm 10 Clear   54 54     100%     30.33        
Oct 18 20:55 Calm 10 Clear   54 54     100%     30.33        
Oct 18 20:35 Calm 10 Clear   54 54     100%     30.33        
Oct 18 20:15 Calm 10 Clear   54 52     94%     30.32        
Oct 18 19:55 Calm 10 Clear   55 52     88%     30.32        
Oct 18 19:35 Calm 10 Clear   55 54     94%     30.32        
Oct 18 19:15 Calm 10 Clear   57 54     88%     30.32        
Oct 18 18:55 Calm 10 Clear   57 54     88%     30.31        
Oct 18 18:35 Calm 10 Clear   59 54     82%     30.31        
Oct 18 18:15 Calm 10 Clear   63 52     68%     30.31        
Oct 18 17:55 NNE 5 10 Clear   66 50     56%     30.31        
Oct 18 17:35 N 7 10 Clear   68 50     53%     30.31        
Oct 18 17:15 NNE 6 10 Clear   72 50     46%   71 30.31        
Oct 18 16:55 NE 5 10 Clear   72 50     46%   71 30.3        
Oct 18 16:35 NE 5 10 Clear   73 48     41%   72 30.31        
Oct 18 16:15 NNE 5 10 Clear   72 48     43%   71 30.3        
Oct 18 15:55 NNE 8 10 Clear   73 50     44%   72 30.3        
Oct 18 15:35 ENE 7 10 Clear   73 50     44%   72 30.3        
Oct 18 15:15 5 10 Clear   73 48     41%   72 30.3        
Oct 18 14:55 Calm 10 Clear   72 50     46%   71 30.3        
Oct 18 14:35 7 10 Clear   72 50     46%   71 30.3        
Oct 18 14:15 5 10 Clear   72 50     46%   71 30.31        
Oct 18 13:55 Calm 10 Clear   72 50     46%   71 30.32        
Oct 18 13:35 ENE 6 10 Clear   70 48     46%     30.32        
Oct 18 13:15 NE 7 10 Clear   70 48     46%     30.33        
Oct 18 12:55 5 10 Clear   70 48     46%     30.34        
Oct 18 12:35 ENE 8 10 Clear   70 48     46%     30.35        
Oct 18 12:15 5 10 Clear   68 48     49%     30.36        
Oct 18 11:55 NNE 6   Clear   68 48     49%     30.37        
Oct 18 11:35 6 10 Clear   66 48     52%     30.38        
Oct 18 11:15 Calm   Clear   66 48     52%     30.38        
Oct 18 10:55 NE 8   Clear   66 48     52%     30.39        
Oct 18 10:35 NE 7 10 Clear   64 48     56%     30.39        
Oct 18 10:15 NE 8 10 Clear   63 46     55%     30.4        
Oct 18 09:55 NNE 10 5 Clear   63 46     55%     30.39        
Oct 18 09:35 NE 9 10 Clear   61 46     59%     30.39        
Oct 18 09:15 ENE 8 10 Clear   61 48     63%     30.39        
Oct 18 08:55 NNE 7 10 Clear   59 48     67%     30.39        
Oct 18 08:35 NNE 8 10 Clear   57 48     72%     30.38        
Oct 18 08:15 N 7 8 Clear   55 48     77%     30.38        
Oct 18 07:55 N 8 10 Clear   54 48     82%     30.37        
Oct 18 07:35 N 5 10 Clear   52 48     87%     30.36        
Oct 18 07:15 N 6 10 Clear   50 48     93%     30.36        
Oct 18 06:55 N 5 10 Clear   50 48     93%     30.36        
Oct 18 06:35 N 6 10 Clear   52 48     87%     30.35        
Oct 18 06:15 NNE 6 10 Clear   52 48     87%     30.34        
Oct 18 05:55 N 6 10 Clear   54 48     82%     30.34        
Oct 18 05:35 N 6 10 Clear   54 48     82%     30.34        
Oct 18 05:15 N 7 10 Clear   55 48     77%     30.34        
Oct 18 04:55 NNE 7 10 Clear   55 48     77%     30.33        
Oct 18 04:35 NNE 7 10 Clear   57 48     72%     30.33        
Oct 18 04:15 NNE 9 10 Clear   57 48     72%     30.32        
Oct 18 03:55 NNE 9 10 Clear   57 48     72%     30.32        
Oct 18 03:35 NNE 10 10 Clear   57 48     72%     30.32        
Oct 18 03:15 NNE 10 10 Clear   59 50     72%     30.33        
Oct 18 02:55 NNE 10 10 Clear   59 50     72%     30.33        
Oct 18 02:35 N 9 10 Clear   57 50     77%     30.33        
Oct 18 02:15 NNE 7 10 Clear   57 50     77%     30.33        
Oct 18 01:55 N 6 10 Clear   55 50     82%     30.33        
Oct 18 01:35 NNE 5 10 Clear   55 50     82%     30.33        
Oct 18 01:15 N 3 10 Clear   57 50     77%     30.33        
Oct 18 00:55 NNE 6 10 Clear   57 50     77%     30.32        
Oct 18 00:35 NNE 6 10 Clear   59 50     72%     30.32        
Oct 18 00:15 NNE 6 10 Clear   59 50     72%     30.32        
Oct 17 23:55 N 7 10 Clear   61 50     68%     30.32        
Oct 17 23:35 NNE 8 10 Clear   61 50     68%     30.32        
Oct 17 23:15 NNE 8 10 Clear   59 50     72%     30.32        
Oct 17 22:55 NNE 6 10 Clear   59 52     77%     30.32        
Oct 17 22:35 NNE 5 10 Clear   57 54     88%     30.32        
Oct 17 22:15 Calm 10 Clear   55 55     100%     30.32        
Oct 17 21:55 Calm 10 Clear   55 55     100%     30.31        
Oct 17 21:35 Calm 10 Clear   57 57     100%     30.31        
Oct 17 21:15 Calm 10 Clear   55 55     100%     30.31        
Oct 17 20:55 Calm 10 Clear   57 57     100%     30.31        
Oct 17 20:35 Calm 10 Clear   57 57     100%     30.31        
Oct 17 20:15 Calm 10 Clear   59 57     94%     30.3        
Oct 17 19:55 Calm 10 Clear   59 57     94%     30.29        
Oct 17 19:35 Calm 10 Clear   59 57     94%     30.29        
Oct 17 19:15 Calm 10 Clear   61 57     88%     30.29        
Oct 17 18:55 Calm 10 Clear   61 57     88%     30.29        
Oct 17 18:35 N 3 10 Clear   64 57     77%     30.28        
Oct 17 18:15 Calm 10 Clear   64 57     77%     30.28        
Oct 17 17:55 Calm 10 Clear   64 59     83%     30.27        
Oct 17 17:35 Calm 10 Clear   66 57     73%     30.27        
Oct 17 17:15 Calm 10 Clear   68 55     64%     30.27        
Oct 17 16:55 N 3 10 Clear   68 55     64%     30.27        
Oct 17 16:35 NNW 5 10 Clear   68 55     64%     30.27        
Oct 17 16:15 N 5   Clear   68 55     64%     30.26        
Oct 17 15:55 N 6 10 Clear   68 55     64%     30.26        
Oct 17 15:35 N 7 10 Clear   68 55     64%     30.26        
Oct 17 15:15 N 8 10 Clear   70 55     60%     30.26        
Oct 17 14:55 N 7 10 Clear   70 54     56%     30.25        
Oct 17 14:35 N 7 10 Clear   70 54     56%     30.25        
Oct 17 14:15 N 7 10 Clear   70 55     60%     30.24        
Oct 17 13:55 NNE 9 10 Clear   70 55     60%     30.25        
Oct 17 13:35 NNE 9 10 Clear   70 59     69%     30.26        
Oct 17 13:15 N 10 10 Clear   70 59     69%     30.26        
Oct 17 12:55 NE 7 10 Clear   70 59     69%     30.26        
Oct 17 12:35 ENE 5 10 Clear   70 59     69%     30.27        
Oct 17 12:15 NE 7 10 Clear   68 61     78%     30.28        
Oct 17 11:55 NNE 8 10 Clear   66 61     83%     30.29        
Oct 17 11:35 N 8 10 Clear   66 61     83%     30.3        
Oct 17 11:15 N 9 10 Clear   64 63     94%     30.3        
Oct 17 10:55 N 8 10 Clear   64 63     94%     30.29        
Oct 17 10:35 NNE 8 10 Clear   64 64     100%     30.29        
Oct 17 10:15 N 9 10 Clear   63 63     100%     30.29        
May 15 08:35 Calm 10 Clear   73 70     89%   75 30.01        
May 14 21:15 Calm 10 Clear   72 72     100%   73 29.96        
Notice The following observation data may not be complete
May 14 16:55   10 Clear            %              
May 14 15:55 NNE 6 10 Clear   90 64     43%   91 29.97        
May 14 12:35 ENE 5 10 Clear   90 66     46%   92 30.04        
May 14 11:55 5 10 Clear   88 68     52%   91 30.05        
May 14 11:15 6 10 Clear   86 68     55%   89 30.06        
May 14 09:55 E 5 10 Clear   81 70     70%   84 30.07        
Notice The following observation data may not be complete
May 14 08:15 Calm 10 Clear     70      %     30.07        
May 14 05:15 Calm 5 Clear   61 61     100%     30.04        
May 14 02:55 Calm 7 Clear   63 63     100%     30.03        
Notice The following observation data may not be complete
May 13 20:55 Calm 10 Clear     68      %     30.05        
May 13 16:15 Calm 10 Clear   91 59     34%   91 30.04        
May 13 14:55 Calm 10 Clear   90 61     38%   90 30.07        
Notice The following observation data may not be complete
May 13 12:55   10 Clear            %              
May 13 10:15 Calm 10 Clear   82 64     55%   84 30.17        
May 13 01:15 Calm 7 Clear   59 59     100%     30.09        
May 12 22:15 Calm 10 Clear   63 63     100%     30.12        
May 12 14:35 6 10 Clear   88 59     38%   87 30.12        
May 12 11:55 Calm 10 Clear   86 61     43%   86 30.17        
May 12 08:55 Calm 10 Clear   75 66     74%   76 30.19        
May 12 08:15 Calm 10 Clear   70 68     94%     30.19        
May 12 00:55 Calm 6 Clear   61 61     100%     30.1        
May 12 00:15 Calm 9 Clear   61 61     100%     30.1        
May 11 22:55 Calm 10 Clear   63 63     100%     30.11        
Notice The following observation data may not be complete
May 11 20:55 Calm 10 Clear     66      %     30.09        
May 11 12:35 S 5 10 Clear   86 63     46%   87 30.13